This is the latest recevied weather packets stored in our database for station/object DG1JLA-3. If no packets are shown the sender has not sent any weather packets the latest 10 day(s).
| Time | Temp. | Humidity | Pressure | Rain* | Wind** | Luminosity | Snow |
|---|---|---|---|---|---|---|---|
| 1778008490 | 13.33° C | 92% | 1007.7 hPa | 3.05 mm | - | - | - |
| 1778008190 | 13.33° C | 92% | 1007.8 hPa | 3.05 mm | - | - | - |
| 1778007890 | 13.33° C | 92% | 1007.8 hPa | 2.79 mm | - | - | - |
| 1778007590 | 13.33° C | 92% | 1007.6 hPa | 2.79 mm | - | - | - |
| 1778007290 | 13.33° C | 92% | 1007.7 hPa | 2.54 mm | - | - | - |
| 1778006990 | 13.33° C | 91% | 1007.7 hPa | 2.29 mm | - | - | - |
| 1778006690 | 13.33° C | 91% | 1007.7 hPa | 2.29 mm | - | - | - |
| 1778006390 | 13.89° C | 90% | 1007.7 hPa | 2.03 mm | - | - | - |
| 1778006090 | 14.44° C | 87% | 1007.9 hPa | 1.27 mm | - | - | - |
| 1778005790 | 15° C | 86% | 1008.2 hPa | 0.76 mm | - | - | - |
| 1778005490 | 15° C | 84% | 1008.2 hPa | 0.51 mm | - | - | - |
| 1778005190 | 15° C | 84% | 1008 hPa | 0.25 mm | - | - | - |
| 1778004890 | 15° C | 84% | 1007.9 hPa | 0.25 mm | - | - | - |
| 1778004590 | 15° C | 84% | 1007.8 hPa | 0.25 mm | - | - | - |
| 1778004290 | 15° C | 83% | 1007.7 hPa | 0.25 mm | - | - | - |
| 1778003990 | 15° C | 84% | 1007.6 hPa | 0.25 mm | - | - | - |
| 1778003690 | 15° C | 84% | 1007.5 hPa | 0.25 mm | - | - | - |
| 1778003390 | 15° C | 83% | 1007.6 hPa | 0.25 mm | - | - | - |
| 1778003090 | 15° C | 83% | 1007.6 hPa | 0.25 mm | - | - | - |
| 1778002790 | 15° C | 83% | 1007.4 hPa | 0.25 mm | - | - | - |
| 1778002490 | 15.56° C | 82% | 1007.4 hPa | 0.25 mm | - | - | - |
| 1778002190 | 15.56° C | 81% | 1007.6 hPa | 0.25 mm | - | - | - |
| 1778001890 | 15.56° C | 81% | 1007.9 hPa | 0.25 mm | - | - | - |
| 1778001590 | 16.11° C | 80% | 1008.2 hPa | 0 mm | - | - | - |
| 1778001290 | 16.11° C | 79% | 1008.5 hPa | 0 mm | - | - | - |
* Rain latest hour (hover to see other rain measurements)
** Current wind speed in m/s (hover to see current wind gust speed)